Weather History for KAUG - September, 2013

Change the Weather History Date:

Tuesday, September 17, 2013

  Actual Average Record
Temperature  
Mean Temperature 50 °F 60 °F  
Max Temperature 64 °F 69 °F 77 °F (2001)
Min Temperature 37 °F 50 °F 37 °F (2013)
Degree Days  
Heating Degree Days 14 6  
Month to date heating degree days 67  
Since 1 July heating degree days 109  
Cooling Degree Days 0 1  
Month to date cooling degree days 25  
Year to date cooling degree days 382  
Moisture  
Dew Point 38 °F    
Average Humidity 62    
Maximum Humidity 86    
Minimum Humidity 40    
Precipitation  
Precipitation 0.03 in 0.13 in 1.28 in (1999)
Month to date precipitation 2.00  
Year to date precipitation 28.18  
Sea Level Pressure  
Sea Level Pressure 30.33 in    
Wind  
Wind Speed 7 mph (NW)    
Max Wind Speed 12 mph    
Max Gust Speed -    
Visibility 10 miles    
Events      
T = Trace of Precipitation, MM = Missing Value Source: NWS Daily Summary

Daily Weather History Graph

Daily Weather History Graph

Search for Another Location

Airport or City:

Trip Planner

Search our weather history database for the weather conditions in past years. The results will help you decide how hot, cold, wet, or windy it might be!

Date:

Astronomy

Sep. 17, 2013 Rise Set
Actual Time 6:20 AM EDT 6:45 PM EDT
Civil Twilight 5:51 AM EDT 7:14 PM EDT
Nautical Twilight 5:17 AM EDT 7:48 PM EDT
Astronomical Twilight 4:41 AM EDT 8:24 PM EDT
Moon 5:32 PM EDT (9/17) 4:08 AM EDT (9/17)
Length of Visible Light 13h 22m
Length of Day
12h 24m
Waxing Gibbous, 96% of the Moon is Illuminated
Sep 17
Waxing Gibbous
Sep 19
Full
Sep 26
Last Quarter
Oct 4
New
Oct 11
First Quarter

Hourly Weather History & Observations

Time (EDT) Temp. Windchill Dew Point Humidity Pressure Visibility Wind Dir Wind Speed Gust Speed Precip Events Conditions
12:53 AM 42.1 °F 37.7 °F 33.1 °F 70% 30.29 in 10.0 mi NW 6.9 mph - N/A   Clear
1:53 AM 39.9 °F 34.5 °F 34.0 °F 79% 30.30 in 10.0 mi NNW 8.1 mph - N/A   Clear
2:53 AM 39.9 °F 35.1 °F 33.1 °F 77% 30.30 in 10.0 mi NNW 6.9 mph - N/A   Clear
3:53 AM 37.0 °F 34.5 °F 33.1 °F 86% 30.31 in 10.0 mi NNW 3.5 mph - N/A   Clear
4:53 AM 37.9 °F 34.4 °F 33.1 °F 83% 30.32 in 10.0 mi NW 4.6 mph - N/A   Clear
5:53 AM 39.0 °F 33.4 °F 33.1 °F 79% 30.34 in 10.0 mi NW 8.1 mph - N/A   Clear
6:53 AM 39.9 °F 35.8 °F 34.0 °F 79% 30.37 in 10.0 mi NW 5.8 mph - N/A   Clear
7:53 AM 44.1 °F 41.5 °F 35.1 °F 71% 30.38 in 10.0 mi NW 4.6 mph - N/A   Clear
8:53 AM 48.9 °F - 37.9 °F 66% 30.40 in 10.0 mi NNW 8.1 mph - N/A   Clear
9:53 AM 53.1 °F - 39.0 °F 59% 30.40 in 10.0 mi NNW 11.5 mph - N/A   Clear
10:53 AM 55.0 °F - 37.9 °F 53% 30.40 in - NNW 9.2 mph - N/A   Clear
11:53 AM 57.9 °F - 37.9 °F 47% 30.39 in - NNE 11.5 mph - 0.03 in   Clear
12:53 PM 60.1 °F - 39.0 °F 46% 30.37 in - North 9.2 mph - N/A   Clear
1:53 PM 62.1 °F - 39.0 °F 43% 30.35 in 10.0 mi North 10.4 mph - N/A   Clear
2:53 PM 63.0 °F - 39.0 °F 41% 30.33 in 10.0 mi North 8.1 mph - N/A   Clear
3:53 PM 64.0 °F - 39.0 °F 40% 30.31 in 10.0 mi NW 9.2 mph - N/A   Clear
4:53 PM 64.0 °F - 39.9 °F 41% 30.30 in 10.0 mi Variable 5.8 mph - N/A   Clear
5:53 PM 64.0 °F - 39.0 °F 40% 30.30 in 10.0 mi Calm Calm - N/A   Clear
6:53 PM 59.0 °F - 44.1 °F 58% 30.29 in 10.0 mi SSW 3.5 mph - N/A   Clear
7:53 PM 55.9 °F - 44.1 °F 64% 30.30 in 10.0 mi Calm Calm - N/A   Clear
8:53 PM 54.0 °F - 43.0 °F 66% 30.30 in 10.0 mi WNW 4.6 mph - N/A   Clear
9:53 PM 54.0 °F - 42.1 °F 64% 30.31 in 10.0 mi West 4.6 mph - N/A   Clear
10:53 PM 51.1 °F - 43.0 °F 74% 30.30 in 10.0 mi SSW 3.5 mph - N/A   Clear
11:53 PM 52.0 °F - 42.1 °F 69% 30.30 in 10.0 mi NW 3.5 mph - N/A   Clear